Regional Weather Roundup
Issued by NWS Kansas City/Pleasant Hill, MO

Home | Current Version | Previous Version | Text Only | Print | Product List | Glossary On
Versions: 1 2 3 4 5 6 7 8 9 10 11 12 13 14 15 16 17 18 19 20 21 22 23 24 25 26 27 28 29 30 31 32 33 34 35 36 37 38 39 40 41 42 43 44 45 46 47 48 49 50
000
ASUS43 KEAX 300804
RWREAX

WEATHER ROUNDUP FOR EASTERN KANSAS AND NORTHWEST MISSOURI
NATIONAL WEATHER SERVICE KANSAS CITY/PLEASANT HILL MO
300 AM CDT SAT MAY 30 2015

KSZ040-057-103>105-MOZ028-029-037-043-300900-
...KANSAS CITY METROPOLITAN AREA...

CITY           SKY/WX    TMP DP  RH WIND       PRES   REMARKS
K.C. INTL      CLOUDY    64  64 100 N3        29.97S FOG
K.C. DOWNTOWN  CLOUDY    67  63  87 CALM      29.95F
LEES SUMMIT    CLOUDY    63  61  93 W3        29.96F
OLATHE - IXD   CLOUDY    63  63 100 W5        29.97F
OLATHE - OJC   CLOUDY    64  64 100 W5        29.96S
LAWRENCE       CLOUDY    65  62  90 NW12      29.98R

$$

MOZ001>008-011>017-020>025-030>033-038>040-044>046-053-054-300900-
...NORTHERN AND CENTRAL MISSOURI...

CITY           SKY/WX    TMP DP  RH WIND       PRES   REMARKS
ST. JOSEPH     CLOUDY    62  60  93 N15       29.98S
MOSBY          RAIN      63  63 100 CALM      29.96S
WARRENSBURG    FOG       63  61  94 CALM      29.95F VSB 1/2
WHITEMAN AFB   CLOUDY    66  66 100 E1        29.95F
CLINTON        CLOUDY    64  64 100 MISG      29.97R
SEDALIA        CLOUDY    67  64  90 N3        29.97S
WARSAW         CLOUDY    64  64 100 CALM      29.97R
CHILLICOTHE      N/A     66  64  93 CALM      29.96F
MOBERLY        CLOUDY    66  63  88 CALM      29.97F
KIRKSVILLE     CLOUDY    66  65  96 NW6       29.97F

$$

MOZ041-047>049-056>058-063>065-088>090-097-300900-
...EASTERN AND SOUTHERN MISSOURI...

CITY           SKY/WX    TMP DP  RH WIND       PRES   REMARKS
ST. LOUIS INTL LGT RAIN  70  66  87 S9        29.97F FOG
SPIRIT OF STL  LGT RAIN  69  67  93 CALM      29.95S
COLUMBIA       LGT RAIN  66  65  96 E3        29.96S
JEFFERSON CITY LGT RAIN  67  65  93 SE3       29.96R
ROLLA          LGT RAIN  65  64  97 S7        29.96S
LEBANON        RAIN      64  63  94 SE3       29.97F
OSAGE BEACH    CLOUDY    66  64  94 CALM      29.97R
SPRINGFIELD    LGT RAIN  66  64  93 NW3       29.96S
BRANSON        LGT RAIN  64  64 100 CALM      29.97S
NEVADA         CLOUDY    64  63  94 CALM      29.97F
JOPLIN         CLOUDY    64  63  96 NW7       29.98R
WEST PLAINS    LGT RAIN  65  63  93 NE9       29.95F
MALDEN         MOCLDY    73  70  88 S10       29.97S

$$

IAZ060-094-KSZ022-034>040-054-083-096-NEZ052-066-093-300900-
...KANSAS...SOUTHEAST NEBRASKA AND IOWA...

CITY           SKY/WX    TMP DP  RH WIND       PRES   REMARKS
TOPEKA         CLOUDY    62  60  93 NW12      30.01R
MANHATTAN      CLOUDY    58  53  84 N9G18     30.08R
EMPORIA        CLOUDY    61  59  93 NW14      30.02S
CHANUTE        FOG       61  61 100 CALM      29.97F VSB 1/2
WICHITA        CLOUDY    61  55  81 N15G24    30.07R
OMAHA          CLOUDY    51  48  89 N20G30    30.09R
LINCOLN        CLOUDY    53  47  79 N20       30.12S
FALLS CITY     CLOUDY    56  54  93 N13G23    30.04R
LAMONI         CLOUDY    62  59  90 N14G22    29.98R FOG
DES MOINES     CLOUDY    59  55  87 N12       29.98R

$$



USA.gov is the U.S. government's official web portal to all federal, state and local government web resources and services.